Regional Weather Roundup
Issued by NWS

Home | Current Version | Previous Version | Text Only | Print | Product List | Glossary Off
Versions: 1 2 3 4 5 6 7 8 9 10 11 12 13 14 15 16 17 18 19 20 21 22 23 24 25 26 27 28 29 30 31 32 33 34 35 36 37 38 39 40 41 42 43 44 45 46 47 48 49 50

000
ASUS43 KDTX 040301
RWRMI
MICHIGAN HOURLY REGIONAL WEATHER ROUNDUP
NATIONAL WEATHER SERVICE DETROIT/PONTIAC MI
1100 PM EDT MON AUG 03 2015

NOTE: "FAIR" INDICATES FEW OR NO CLOUDS BELOW 12,000 FEET WITH NO
SIGNIFICANT WEATHER AND/OR OBSTRUCTION TO VISIBILITY.

MIZ047>049-052>055-059>063-066>070-074>076-081>083-040400-
SOUTHEAST LOWER MICHIGAN

CITY           SKY/WX    TMP DP  RH WIND       PRES   REMARKS
ADRIAN         CLEAR     64  52  64 W5        29.89R
ALMA           PTCLDY    61  58  91 CALM      29.86R
ANN ARBOR      CLEAR     61  53  75 W3        29.87R
BAD AXE        PTCLDY    63  59  87 CALM      29.84R
CARO           CLEAR     64  58  81 W3        29.84R
DETROIT CITY   CLEAR     71  49  45 W7        29.85R
DETROIT        PTCLDY    69  50  50 W7        29.86R
FLINT          CLEAR     65  53  65 W6        29.86R
GROSSE ILE     CLEAR     70  52  52 W8        29.85R
HILLSDALE      CLEAR     63  53  68 CALM      29.91R
HOWELL         CLEAR     63  51  65 W3        29.87R

CITY           SKY/WX    TMP DP  RH WIND       PRES   REMARKS
JACKSON        FAIR      61  53  75 W6        29.89R
LAMBERTVILLE   CLEAR     65  54  68 CALM      29.88R
LANSING        CLEAR     64  52  64 W6        29.88R
LAPEER         FAIR      66  54  65 W5        29.85R
MASON          CLEAR     60  52  74 SW3       29.88R
MONROE         CLEAR     64  54  71 W5        29.86R
MT. CLEMENS    CLEAR     69  54  59 W7        29.83R
PONTIAC        CLEAR     65  53  65 W8        29.85R
PORT HURON     PTCLDY    61  59  94 CALM      29.84R
TRI CITIES     MOCLDY    66  55  67 SW5       29.85R
MIDLAND        CLOUDY    62  55  78 CALM      29.83S
TROY           CLEAR     70  50  48 W5        29.87R
SAGINAW HB     PTCLDY    64  55  72 W3        29.84R
$$
MIZ043>046-050>051-056>058-064>065-071>073-077>080-040400-
SOUTHWEST LOWER MICHIGAN

CITY           SKY/WX    TMP DP  RH WIND       PRES   REMARKS
BATTLE CREEK     N/A    N/A N/A N/A MISG      29.90R
BENTON HARBOR  CLEAR     61  57  87 CALM      29.89R
BIG RAPIDS     PTCLDY    62  52  70 W5        29.85R
COLDWATER      CLEAR     61  53  76 SW3       29.91R
FREMONT        CLOUDY    65  58  78 SW5       29.86R
HOLLAND        CLOUDY    67  55  65 SW6       29.88R
GRAND RAPIDS   PTCLDY    65  53  65 SW7       29.87R
IONIA          FAIR      64  53  67 SW5       29.87R
KALAMAZOO      CLEAR     64  53  67 SW3       29.90R
LUDINGTON      MOCLDY    64  59  84 CALM      29.85R
MARSHALL       CLEAR     61  54  79 CALM      29.89R
MOUNT PLEASANT PTCLDY    64  56  74 CALM      29.84R
MUSKEGON       MOCLDY    66  56  70 SW7       29.87R
SOUTH HAVEN    CLEAR     60  57  89 CALM      29.88S
$$
MIZ016>042-040400-
NORTHERN LOWER MICHIGAN

CITY           SKY/WX    TMP DP  RH WIND       PRES   REMARKS
ALPENA         MOCLDY    63  54  72 W3        29.82R
BEAVER ISLAND  LGT RAIN  60  58  93 CALM      29.83R VSB 1
BELLAIRE       PTCLDY    60  58  93 CALM      29.83S
CADILLAC       CLEAR     56  53  90 CALM      29.85S
CHARLEVOIX     MOCLDY    61  59  92 CALM      29.86S
FRANKFORT      CLEAR     59  58  95 CALM      29.84R
GAYLORD        CLEAR     58  58 100 CALM      29.85R
GRAYLING       CLEAR     54  52  92 CALM      29.85S
HARBOR SPRINGS CLOUDY    60  58  92 CALM      29.83R
HOUGHTON LAKE  PTCLDY    61  52  72 NW5       29.85R
MANISTEE       PTCLDY    61  54  77 CALM      29.85R
OSCODA         LGT RAIN  64  60  86 NW5       29.82R
PELLSTON       CLOUDY    58  57  97 CALM      29.83R
ROGERS CITY    MOCLDY    60  57  87 CALM      29.83R
TRAVERSE CITY  CLEAR     60  55  83 CALM      29.82R
$$
MIZ007>008-015-040400-
EASTERN UPPER MICHIGAN

CITY           SKY/WX    TMP DP  RH WIND       PRES   REMARKS
KINROSS        CLEAR     55  54  94 W3        29.81R
MACKINAC ISLAN MOCLDY    59  58  95 NW3       29.82R
NEWBERRY       CLOUDY    58  54  85 W3        29.81S
S. S. MARIE    MOCLDY    59  52  77 W6        29.79S
MUNISING         N/A     60  54  80 VRB3      29.81R
$$
MIZ004>006-011>014-085-040400-
CENTRAL UPPER MICHIGAN

CITY           SKY/WX    TMP DP  RH WIND       PRES   REMARKS
ESCANABA       CLOUDY    61  54  77 CALM      29.82S
MENOMINEE      PTCLDY    63  52  67 CALM      29.84R
SAWYER-GWINN   MOCLDY    60  52  73 W5        29.82S
$$
MIZ001>003-009>011-084-040400-
WESTERN UPPER MICHIGAN

CITY           SKY/WX    TMP DP  RH WIND       PRES   REMARKS
IRON MOUNTAIN  LGT RAIN  62  54  74 W7        29.84R
HOUGHTON       LGT RAIN  57  54  89 W13       29.82R
COPPER HARBOR    N/A     59  53  80 NW10      29.78R
IRONWOOD       CLOUDY    59  57  94 W7        29.86R
$$

ABBREVIATIONS USED IN REMARKS
   TC - TEMPERATURE IN CELSIUS
  WCI - WIND CHILL INDEX
   HX - HEAT INDEX
  VSB - VISIBILITY




USA.gov is the U.S. government's official web portal to all federal, state and local government web resources and services.